Tracking 29040 objects as of 16-Jun-2024
HD Live streaming from Space Station
objects crossing your sky now

SL-14 DEB

Track SL-14 DEB now!
10-day predictions


NORAD ID: 26007
Int'l Code: 1991-068S
Perigee: 1,469.5 km
Apogee: 1,487.6 km
Inclination: 82.7 °
Period: 115.4 minutes
Semi major axis: 7849 km
RCS: 0.1171 m2 (medium)
Launch date: September 28, 1991
Source: Commonwealth of Independent States (former USSR) (CIS)
Launch site: PLESETSK MISSILE AND SPACE COMPLEX (PKMTR)

Note: This is SATELLITE DEBRIS
Your satellite tracking list
Your tracking list is empty




NASA's NSSDC Master Catalog

Two Line Element Set (TLE):
1 26007U 91068S   24168.47862281  .00000028  00000-0  11947-3 0  9993
2 26007  82.6990 340.5516 0011485 359.8339  27.9544 12.48351097124765
Source of the keplerian elements: AFSPC